Weather History for KLLJ - April, 2013

Change the Weather History Date:

Friday, April 19, 2013

  Actual Average Record
Temperature  
Mean Temperature 47 °F 44 °F  
Max Temperature 56 °F 58 °F 81 °F (1962)
Min Temperature 38 °F 30 °F 13 °F (1927)
Degree Days  
Heating Degree Days 18 21  
Month to date heating degree days 448 432  
Since 1 July heating degree days 7048 7377  
Cooling Degree Days 0 0  
Month to date cooling degree days 0 0  
Year to date cooling degree days 0 0  
Moisture  
Dew Point 24 °F    
Average Humidity 48    
Maximum Humidity 58    
Minimum Humidity 38    
Precipitation  
Precipitation T in 0.02 in 0.25 in (1955)
Month to date precipitation 0.01 0.46  
Year to date precipitation 0.46 2.30  
Sea Level Pressure  
Sea Level Pressure 29.98 in    
Wind  
Wind Speed 5 mph (SW)    
Max Wind Speed 18 mph    
Max Gust Speed 23 mph    
Visibility 10 miles    
Events Rain    
T = Trace of Precipitation, MM = Missing Value Source: NWS Daily Summary

Daily Weather History Graph

Daily Weather History Graph

Search for Another Location

Airport or City:

Trip Planner

Search our weather history database for the weather conditions in past years. The results will help you decide how hot, cold, wet, or windy it might be!

Date:

Astronomy

Apr. 19, 2013 Rise Set
Actual Time 6:45 AM MDT 8:27 PM MDT
Civil Twilight 6:14 AM MDT 8:57 PM MDT
Nautical Twilight 5:37 AM MDT 9:35 PM MDT
Astronomical Twilight 4:57 AM MDT 10:16 PM MDT
Moon 2:01 PM MDT (4/19) 3:18 AM MDT (4/19)
Length of Visible Light 14h 43m
Length of Day
13h 41m
Waxing Gibbous, 62% of the Moon is Illuminated
Apr 19
Waxing Gibbous
Apr 25
Full
May 2
Last Quarter
May 9
New
May 17
First Quarter

Hourly Weather History & Observations

Time (MDT) Temp. Windchill Dew Point Humidity Pressure Visibility Wind Dir Wind Speed Gust Speed Precip Events Conditions
12:55 AM 41.0 °F 38.0 °F 17.1 °F 38% 30.16 in 10.0 mi North 4.6 mph - N/A   Clear
1:55 AM 39.9 °F 36.7 °F 17.1 °F 40% 30.15 in 10.0 mi WNW 4.6 mph - N/A   Overcast
2:55 AM 37.9 °F 35.5 °F 18.0 °F 45% 30.14 in 10.0 mi SSE 3.5 mph - N/A   Overcast
3:55 AM 37.9 °F 35.5 °F 18.0 °F 45% 30.11 in 10.0 mi SSE 3.5 mph - N/A   Overcast
4:55 AM 39.0 °F - 18.0 °F 43% 30.09 in 10.0 mi Calm Calm - N/A   Overcast
5:55 AM 39.0 °F - 18.0 °F 43% 30.07 in 10.0 mi Calm Calm - N/A   Overcast
6:55 AM 39.0 °F - 19.0 °F 45% 30.06 in 10.0 mi Calm Calm - N/A   Overcast
7:55 AM 41.0 °F - 21.0 °F 45% 30.05 in 10.0 mi Calm Calm - N/A   Overcast
8:55 AM 43.0 °F - 21.0 °F 42% 30.06 in 10.0 mi Calm Calm - N/A   Mostly Cloudy
9:55 AM 46.9 °F - 24.1 °F 41% 30.01 in 10.0 mi SE 6.9 mph - N/A   Overcast
10:55 AM 48.0 °F - 27.0 °F 44% 30.01 in 10.0 mi South 10.4 mph - 0.00 in   Overcast
11:55 AM 48.9 °F - 28.0 °F 44% 29.97 in 10.0 mi Variable 5.8 mph - N/A   Overcast
12:55 PM 51.1 °F - 28.9 °F 43% 29.94 in 10.0 mi Variable 6.9 mph - N/A   Overcast
1:55 PM 51.1 °F - 28.9 °F 43% 29.91 in 10.0 mi South 6.9 mph - 0.00 in   Overcast
2:55 PM 52.0 °F - 28.9 °F 41% 29.89 in 10.0 mi SSE 9.2 mph - 0.00 in   Overcast
3:55 PM 53.1 °F - 28.9 °F 40% 29.86 in 10.0 mi SW 18.4 mph 23.0 mph N/A   Overcast
4:55 PM 52.0 °F - 28.9 °F 41% 29.84 in 10.0 mi Calm Calm - 0.00 in Rain Light Rain
5:55 PM 55.0 °F - 28.0 °F 35% 29.84 in 10.0 mi WNW 8.1 mph - 0.00 in   Overcast
6:55 PM 53.1 °F - 28.0 °F 38% 29.85 in 10.0 mi WNW 12.7 mph 21.9 mph N/A   Mostly Cloudy
7:55 PM 48.9 °F - 27.0 °F 43% 29.86 in 10.0 mi West 15.0 mph - N/A   Overcast
8:55 PM 46.0 °F - 28.0 °F 50% 29.87 in 10.0 mi Calm Calm - N/A   Overcast
9:55 PM 44.1 °F - 27.0 °F 51% 29.88 in 10.0 mi Calm Calm - N/A   Overcast
10:55 PM 44.1 °F - 27.0 °F 51% 29.89 in 10.0 mi Calm Calm - N/A   Overcast
11:55 PM 44.1 °F 40.8 °F 30.0 °F 58% 29.90 in 10.0 mi NNE 5.8 mph - N/A   Overcast